CW4588 Weather Reports


Display with metric or nautical units.
time (UTC)temp
F
wind
direction
speed
MPH
gust
MPH
rain 1hr
in
rain 24hr
in
rain mn
in
humidity
%
barometer
mb
20260504050525 36 290 0.0 0.0 0.00 0.00 0.00 77 1001.4
20260504045527 36 290 0.0 0.0 0.00 0.00 0.00 80 1001.6
20260504045030 35 290 0.0 0.0 0.00 0.00 0.00 83 1001.6
20260504044548 34 290 0.0 0.0 0.00 0.00 0.00 87 1001.6
20260504044034 33 290 0.0 0.0 0.00 0.00 0.00 89 1001.9
20260504043522 32 290 0.0 0.0 0.00 0.00 0.00 91 1001.9
20260504043038 31 290 0.0 0.0 0.00 0.00 0.00 92 1001.9
20260504042529 30 290 0.0 0.0 0.00 0.00 0.00 93 1001.9
20260504042035 29 290 0.0 0.0 0.00 0.00 0.00 93 1001.9
20260504041526 29 290 0.0 0.0 0.00 0.00 0.00 93 1002.0
20260504041044 28 290 0.0 0.0 0.00 0.00 0.00 93 1002.0
20260504040546 28 290 0.0 0.0 0.00 0.00 0.00 93 1002.0
20260504040034 27 290 0.0 0.0 0.00 0.00 0.00 93 1002.0
20260504035534 27 290 0.0 0.0 0.00 0.00 0.00 93 1002.1
20260504035040 27 290 0.0 0.0 0.00 0.00 0.00 93 1002.1
20260504034528 26 290 0.0 0.0 0.00 0.00 0.00 92 1002.5
20260504034020 26 290 0.0 0.0 0.00 0.00 0.00 92 1002.5
20260504033537 26 290 0.0 0.0 0.00 0.00 0.00 92 1002.5
20260504033027 26 290 0.0 0.0 0.00 0.00 0.00 92 1002.5
20260504032552 26 290 0.0 0.0 0.00 0.00 0.00 92 1002.5
20260504032032 26 290 0.0 0.0 0.00 0.00 0.00 92 1002.5
20260504031538 26 290 0.0 0.0 0.00 0.00 0.00 92 1002.5
20260504031023 26 290 0.0 0.0 0.00 0.00 0.00 91 1002.8
20260504030533 26 290 0.0 0.0 0.00 0.00 0.00 91 1002.8
20260504030056 25 290 0.0 0.0 0.00 0.00 0.00 91 1002.8
20260504025539 25 290 0.0 0.0 0.00 0.00 0.00 91 1002.9
20260504025024 25 290 0.0 0.0 0.00 0.00 0.00 91 1002.9
20260504024538 25 290 0.0 0.0 0.00 0.00 0.00 91 1002.9
20260504024026 25 290 0.0 0.0 0.00 0.00 0.00 91 1003.0
20260504023538 25 290 0.0 0.0 0.00 0.00 0.00 90 1003.0
20260504023027 25 290 0.0 0.0 0.00 0.00 0.00 90 1003.2
20260504022541 25 290 0.0 0.0 0.00 0.00 0.00 90 1003.2
20260504022047 25 290 0.0 0.0 0.00 0.00 0.00 90 1003.2
20260504021543 25 290 0.0 0.0 0.00 0.00 0.00 90 1003.2
20260504021029 26 290 0.0 0.0 0.00 0.00 0.00 90 1003.4
20260504020536 26 290 0.0 0.0 0.00 0.00 0.00 89 1003.4
20260504020023 26 290 0.0 0.0 0.00 0.00 0.00 89 1003.5
20260504015600 26 290 0.0 0.0 0.00 0.00 0.00 89 1003.5
20260504015026 26 290 0.0 0.0 0.00 0.00 0.00 89 1003.5
20260504014528 26 290 0.0 0.0 0.00 0.00 0.00 89 1003.5
20260504014034 26 290 0.0 0.0 0.00 0.00 0.00 88 1003.5
20260504013542 26 290 0.0 0.0 0.00 0.00 0.00 88 1003.5
20260504013038 26 290 0.0 0.0 0.00 0.00 0.00 88 1003.5
20260504012525 26 290 0.0 0.0 0.00 0.00 0.00 88 1003.6
20260504012042 27 290 0.0 0.0 0.00 0.00 0.00 88 1003.6
20260504011528 27 290 0.0 0.0 0.00 0.00 0.00 88 1003.6
20260504011034 27 290 0.0 0.0 0.00 0.00 0.00 88 1003.6
20260504010529 27 290 0.0 0.0 0.00 0.00 0.00 88 1003.6
20260504010059 27 290 0.0 0.0 0.00 0.00 0.00 88 1003.6
20260504005522 27 290 0.0 0.0 0.00 0.00 0.00 88 1003.8
20260504005039 27 290 0.0 0.0 0.00 0.00 0.00 87 1003.8
20260504004525 27 290 0.0 0.0 0.00 0.00 0.00 87 1003.8
20260504004030 27 290 0.0 0.0 0.00 0.00 0.00 87 1003.8
20260504003521 27 290 0.0 0.0 0.00 0.00 0.00 87 1003.8
20260504003057 27 290 0.0 0.0 0.00 0.00 0.00 87 1003.8
20260504002535 27 290 0.0 0.0 0.00 0.00 0.00 86 1003.9
20260504002046 28 290 0.0 0.0 0.00 0.00 0.00 86 1003.9
20260504001541 28 290 0.0 0.0 0.00 0.00 0.00 86 1003.9
20260504001027 28 290 0.0 0.0 0.00 0.00 0.00 86 1004.1
20260504000532 28 290 0.0 0.0 0.00 0.00 0.00 85 1004.1
20260504000027 28 290 0.0 0.0 0.00 0.00 0.00 85 1004.2
20260503235603 28 290 0.0 0.0 0.00 0.00 0.00 85 1004.2
20260503235047 28 290 0.0 0.0 0.00 0.00 0.00 85 1004.2
20260503234532 28 290 0.0 0.0 0.00 0.00 0.00 85 1004.2
20260503234026 28 290 0.0 0.0 0.00 0.00 0.00 84 1004.2
20260503233535 28 290 0.0 0.0 0.00 0.00 0.00 84 1004.2
20260503233022 28 290 0.0 0.0 0.00 0.00 0.00 84 1004.3
20260503232528 29 290 0.0 0.0 0.00 0.00 0.00 84 1004.3
20260503232048 29 290 0.0 0.0 0.00 0.00 0.00 84 1004.3
20260503231539 29 290 0.0 0.0 0.00 0.00 0.00 84 1004.3
20260503231022 29 290 0.0 0.0 0.00 0.00 0.00 84 1004.3
20260503230530 29 290 0.0 0.0 0.00 0.00 0.00 84 1004.3
20260503230049 29 290 0.0 0.0 0.00 0.00 0.00 84 1004.3
20260503225537 29 290 0.0 0.0 0.00 0.00 0.00 83 1004.3
20260503225025 29 290 0.0 0.0 0.00 0.00 0.00 83 1004.3
20260503224539 30 290 0.0 0.0 0.00 0.00 0.00 82 1004.3
20260503224023 30 290 0.0 0.0 0.00 0.00 0.00 81 1004.3
20260503223531 30 290 0.0 0.0 0.00 0.00 0.00 80 1004.3
20260503223027 30 290 0.0 0.0 0.00 0.00 0.00 80 1004.4
20260503222546 30 290 0.0 0.0 0.00 0.00 0.00 80 1004.4
20260503222029 31 290 0.0 0.0 0.00 0.00 0.00 80 1004.4
20260503221537 31 290 0.0 0.0 0.00 0.00 0.00 80 1004.4
20260503221023 31 290 0.0 0.0 0.00 0.00 0.00 79 1004.4
20260503220527 31 290 0.0 0.0 0.00 0.00 0.00 79 1004.4
20260503220048 31 290 0.0 0.0 0.00 0.00 0.00 78 1004.4
20260503215531 32 290 0.0 0.0 0.00 0.00 0.00 78 1004.4
20260503215059 32 290 0.0 0.0 0.00 0.00 0.00 77 1004.4
20260503214530 32 290 0.0 0.0 0.00 0.00 0.00 76 1004.4
20260503214034 32 290 0.0 0.0 0.00 0.00 0.00 76 1004.4
20260503213521 33 290 0.0 0.0 0.00 0.00 0.00 76 1004.4
20260503213030 33 290 0.0 0.0 0.00 0.00 0.00 75 1004.5
20260503212520 33 290 0.0 0.0 0.00 0.00 0.00 75 1004.5
20260503212059 33 290 0.0 0.0 0.00 0.00 0.00 74 1004.5
20260503211527 34 290 0.0 0.0 0.00 0.00 0.00 73 1004.6
20260503211022 34 290 0.0 0.0 0.00 0.00 0.00 73 1004.6
20260503210528 34 290 0.0 0.0 0.00 0.00 0.00 72 1004.6
20260503210026 34 290 0.0 0.0 0.00 0.00 0.00 71 1004.6
20260503205544 35 290 0.0 0.0 0.00 0.00 0.00 71 1004.6
20260503205033 35 290 0.0 0.0 0.00 0.00 0.00 69 1004.6
20260503204521 35 290 0.0 0.0 0.00 0.00 0.00 69 1004.6
20260503204024 36 290 0.0 0.0 0.00 0.00 0.00 69 1004.6
20260503203537 36 290 0.0 0.0 0.00 0.00 0.00 68 1004.6
20260503203039 36 290 0.0 0.0 0.00 0.00 0.00 67 1004.6
20260503202523 36 290 0.0 0.0 0.00 0.00 0.00 66 1004.7
20260503202028 37 290 0.0 0.0 0.00 0.00 0.00 66 1004.7
20260503201544 37 290 0.0 0.0 0.00 0.00 0.00 65 1004.7
20260503201048 37 290 0.0 0.0 0.00 0.00 0.00 64 1004.6
20260503200545 37 290 0.0 0.0 0.00 0.00 0.00 64 1004.6
20260503200030 38 290 0.0 0.0 0.00 0.00 0.00 63 1004.5
20260503195528 38 290 0.0 0.0 0.00 0.00 0.00 63 1004.5
20260503195034 38 0.0 0.0 0.00 0.00 0.00 62 1004.5
20260503194549 0 0.0 0.0 0.00 0.00 0.01 1004.6
20260503194027 0 0.0 0.0 0.00 0.00 0.01 1004.5
20260503193520 0 0.0 0.0 0.00 0.00 0.01 1004.5
20260503193038 0 0.0 0.0 0.00 0.00 0.01 1004.5
20260503192540 0 0.0 0.0 0.00 0.00 0.01 1004.5
20260503192058 0 0.0 0.0 0.00 0.00 0.01 1004.5
20260503191549 0 0.0 0.0 0.00 0.00 0.01 1004.5
20260503191025 0 0.0 0.0 0.00 0.00 0.01 1004.5
20260503190534 0 0.0 0.0 0.00 0.00 0.01 1004.5
20260503190053 0 0.0 0.0 0.00 0.00 0.01 1004.5
20260503185530 0 0.0 0.0 0.00 0.00 0.01 1004.3
20260503185057 0 0.0 0.0 0.00 0.00 0.01 1004.3
20260503184528 0 0.0 0.0 0.00 0.00 0.01 1004.3
20260503184040 0 0.0 0.0 0.00 0.00 0.01 1004.1
20260503183525 0 0.0 0.0 0.00 0.00 0.01 1004.1
20260503183037 0 0.0 0.0 0.00 0.00 0.01 1004.1
20260503182538 0 0.0 0.0 0.00 0.00 0.01 1004.1
20260503182025 0 0.0 0.0 0.00 0.00 0.01 1004.1
20260503181534 0 0.0 0.0 0.00 0.00 0.01 1004.1
20260503181101 0 0.0 0.0 0.00 0.00 0.01 1004.0
20260503180527 0 0.0 0.0 0.00 0.00 0.01 1004.0
20260503180035 0 0.0 0.0 0.00 0.00 0.01 1004.0
20260503175552 0 0.0 0.0 0.00 0.00 0.01 1003.9
20260503175059 0 0.0 0.0 0.00 0.00 0.01 1003.9
20260503174523 0 0.0 0.0 0.00 0.00 0.01 1003.9
20260503174039 0 0.0 0.0 0.00 0.00 0.01 1003.9
20260503173535 0 0.0 0.0 0.00 0.00 0.01 1003.9
20260503173024 0 0.0 0.0 0.00 0.00 0.01 1003.9
20260503172530 0 0.0 0.0 0.00 0.00 0.01 1003.9
20260503172050 0 0.0 0.0 0.00 0.00 0.01 1003.9
20260503171537 0 0.0 0.0 0.00 0.00 0.01 1003.9
20260503171027 0 0.0 0.0 0.00 0.00 0.01 1003.8
20260503170522 0 0.0 0.0 0.00 0.00 0.01 1003.8
20260503150543 51 268 5.0 0.0 0.00 0.00 0.01 32 1004.0
20260503131031 54 295 6.0 0.0 0.00 0.00 0.01 33 1004.1
20260503130533 54 279 6.0 0.0 0.00 0.00 0.01 33 1004.1
20260503110544 54 252 4.0 0.0 0.00 0.00 0.01 32 1004.5
20260503081537 50 250 4.0 0.0 0.00 0.00 0.01 49 1004.6
20260503081021 49 285 5.0 0.0 0.00 0.00 0.01 47 1004.5
20260503080551 50 281 4.0 0.0 0.00 0.00 0.01 45 1004.5
20260503072525 48 237 3.0 0.0 0.00 0.00 0.01 55 1004.3
20260503072042 48 217 3.0 0.0 0.00 0.00 0.01 53 1004.3
20260503071545 47 298 3.0 0.0 0.00 0.00 0.01 54 1004.3
20260503071044 47 300 5.0 0.0 0.00 0.00 0.01 53 1004.2
20260503070539 47 302 5.0 0.0 0.00 0.00 0.01 54 1004.2